Larbert, United Kingdom
Current Conditions -  °F | °C
As of 11:20 PM on Saturday 22 Nov 2014 (Local Time) from EGPH Reporting Station
Clear Clear  
Wind Chill: 42°   Ceiling: Unl
Heat Index: 45°   Visibility: 6mi
Dew Point: 43°   Wind: 5mph
Humidity: 93%   Direction: 220°SW
Pressure: 29.91"   Gusts: NA
Location:  56.02°N, 3.83°W
Report Text: EGPH 222320Z 22004KT 190V250 CAVOK 07/06 Q1013
Loading
Personal Weather Stations






























Interactive Weather Map New forecast layout! Learn more

10-Day Weather Forecast

Advertisements
Track Severe Weather on mobile